| time (UTC) | temp C | wind direction | speed KPH | gust KPH | rain 1hr cm | rain 24hr cm | rain mn cm | humidity % | barometer mb |
| 20260507191534 | 18 | 169 | 14.5 | 33.8 | 0.00 | 0.00 | 0.00 | 52 | 1013.1 |
| 20260507190031 | 18 | 235 | 8.0 | 24.1 | 0.00 | 0.00 | 0.00 | 56 | 1013.1 |
| 20260507184529 | 18 | 248 | 12.9 | 27.4 | 0.00 | 0.00 | 0.00 | 54 | 1013.5 |
| 20260507183041 | 17 | 229 | 12.9 | 25.7 | 0.00 | 0.00 | 0.00 | 55 | 1013.5 |
| 20260507181530 | 17 | 230 | 11.3 | 25.7 | 0.00 | 0.00 | 0.00 | 53 | 1013.7 |
| 20260507180033 | 17 | 229 | 11.3 | 25.7 | 0.00 | 0.00 | 0.00 | 56 | 1013.9 |
| 20260507174534 | 17 | 286 | 16.1 | 30.6 | 0.00 | 0.00 | 0.00 | 54 | 1014.2 |
| 20260507173034 | 17 | 257 | 14.5 | 24.1 | 0.00 | 0.00 | 0.00 | 56 | 1014.4 |
| 20260507171532 | 17 | 219 | 11.3 | 29.0 | 0.00 | 0.00 | 0.00 | 55 | 1014.6 |
| 20260507170032 | 16 | 254 | 16.1 | 29.0 | 0.00 | 0.00 | 0.00 | 55 | 1014.9 |
| 20260507164534 | 16 | 236 | 8.0 | 22.5 | 0.00 | 0.00 | 0.00 | 58 | 1015.1 |
| 20260507163031 | 16 | 236 | 12.9 | 30.6 | 0.00 | 0.00 | 0.00 | 57 | 1015.3 |
| 20260507161529 | 16 | 285 | 8.0 | 24.1 | 0.00 | 0.00 | 0.00 | 59 | 1015.3 |
| 20260507160035 | 16 | 248 | 8.0 | 19.3 | 0.00 | 0.00 | 0.00 | 59 | 1015.4 |
| 20260507154533 | 15 | 305 | 8.0 | 24.1 | 0.00 | 0.00 | 0.00 | 60 | 1015.7 |
| 20260507153031 | 15 | 245 | 8.0 | 17.7 | 0.00 | 0.00 | 0.00 | 64 | 1015.8 |
| 20260507151530 | 14 | 221 | 9.7 | 24.1 | 0.00 | 0.00 | 0.00 | 63 | 1015.8 |
| 20260507150028 | 13 | 302 | 8.0 | 20.9 | 0.00 | 0.00 | 0.00 | 63 | 1016.1 |
| 20260507144532 | 13 | 264 | 6.4 | 19.3 | 0.00 | 0.00 | 0.00 | 66 | 1016.3 |
| 20260507143053 | 12 | 230 | 6.4 | 14.5 | 0.00 | 0.00 | 0.00 | 69 | 1016.3 |
| 20260507141539 | 12 | 252 | 4.8 | 19.3 | 0.00 | 0.00 | 0.00 | 71 | 1016.2 |
| 20260507140028 | 11 | 281 | 3.2 | 16.1 | 0.00 | 0.00 | 0.00 | 75 | 1016.4 |
| 20260507134530 | 11 | 310 | 6.4 | 17.7 | 0.00 | 0.00 | 0.00 | 75 | 1016.3 |
| 20260507133028 | 10 | 272 | 4.8 | 17.7 | 0.00 | 0.00 | 0.00 | 76 | 1016.4 |
| 20260507131537 | 10 | 324 | 3.2 | 14.5 | 0.00 | 0.00 | 0.00 | 78 | 1016.4 |
| 20260507130039 | 9 | 249 | 4.8 | 12.9 | 0.00 | 0.00 | 0.00 | 78 | 1016.5 |
| 20260507124531 | 8 | 279 | 4.8 | 12.9 | 0.00 | 0.00 | 0.00 | 80 | 1016.5 |
| 20260507123031 | 8 | 242 | 4.8 | 11.3 | 0.00 | 0.00 | 0.00 | 80 | 1016.6 |
| 20260507121528 | 8 | 249 | 4.8 | 12.9 | 0.00 | 0.00 | 0.00 | 81 | 1016.6 |
| 20260507120028 | 7 | 237 | 3.2 | 6.4 | 0.00 | 0.00 | 0.00 | 82 | 1016.5 |
| 20260507114532 | 7 | 259 | 3.2 | 9.7 | 0.00 | 0.00 | 0.00 | 82 | 1016.4 |
| 20260507113031 | 7 | 262 | 3.2 | 8.0 | 0.00 | 0.00 | 0.00 | 81 | 1016.5 |
| 20260507111530 | 7 | 261 | 3.2 | 6.4 | 0.00 | 0.00 | 0.00 | 81 | 1016.5 |
| 20260507110029 | 7 | 242 | 1.6 | 6.4 | 0.00 | 0.00 | 0.00 | 81 | 1016.4 |
| 20260507104528 | 7 | 242 | 1.6 | 6.4 | 0.00 | 0.00 | 0.00 | 80 | 1016.3 |
| 20260507103032 | 7 | 244 | 1.6 | 6.4 | 0.00 | 0.00 | 0.00 | 80 | 1016.4 |
| 20260507101530 | 7 | 0 | 0.0 | 6.4 | 0.00 | 0.00 | 0.00 | 80 | 1016.5 |
| 20260507100036 | 6 | 254 | 1.6 | 8.0 | 0.00 | 0.00 | 0.00 | 81 | 1016.5 |
| 20260507094531 | 6 | 238 | 0.0 | 6.4 | 0.00 | 0.00 | 0.00 | 81 | 1016.5 |
| 20260507093028 | 6 | 0 | 0.0 | 4.8 | 0.00 | 0.00 | 0.00 | 81 | 1016.6 |
| 20260507091534 | 6 | 0 | 0.0 | 4.8 | 0.00 | 0.00 | 0.00 | 81 | 1016.7 |
| 20260507090032 | 6 | 0 | 0.0 | 3.2 | 0.00 | 0.00 | 0.00 | 80 | 1016.7 |
| 20260507084531 | 6 | 0 | 0.0 | 3.2 | 0.00 | 0.00 | 0.00 | 80 | 1016.9 |
| 20260507083030 | 6 | 241 | 1.6 | 4.8 | 0.00 | 0.00 | 0.00 | 81 | 1016.9 |
| 20260507081530 | 6 | 221 | 0.0 | 3.2 | 0.00 | 0.00 | 0.00 | 79 | 1017.0 |
| 20260507080031 | 7 | 0 | 0.0 | 3.2 | 0.00 | 0.00 | 0.00 | 78 | 1016.9 |
| 20260507074528 | 7 | 0 | 0.0 | 6.4 | 0.00 | 0.00 | 0.00 | 77 | 1016.9 |
| 20260507073032 | 7 | 0 | 0.0 | 4.8 | 0.00 | 0.00 | 0.00 | 78 | 1016.9 |
| 20260507071534 | 7 | 0 | 0.0 | 4.8 | 0.00 | 0.00 | 0.00 | 77 | 1017.2 |
| 20260507070033 | 7 | 0 | 0.0 | 3.2 | 0.00 | 0.00 | 0.00 | 75 | 1017.4 |
| 20260507064548 | 7 | 0 | 0.0 | 3.2 | 0.00 | 0.03 | 0.00 | 73 | 1017.5 |
| 20260507063033 | 8 | 241 | 0.0 | 4.8 | 0.00 | 0.03 | 0.00 | 73 | 1017.5 |
| 20260507061530 | 8 | 0 | 0.0 | 6.4 | 0.00 | 0.03 | 0.00 | 73 | 1017.5 |
| 20260507060032 | 7 | 269 | 1.6 | 8.0 | 0.00 | 0.03 | 0.00 | 80 | 1017.6 |
| 20260507054529 | 7 | 0 | 0.0 | 1.6 | 0.00 | 0.05 | 0.00 | 82 | 1017.6 |
| 20260507053031 | 7 | 0 | 0.0 | 3.2 | 0.00 | 0.05 | 0.00 | 83 | 1017.6 |
| 20260507051529 | 7 | 0 | 0.0 | 0.0 | 0.00 | 0.05 | 0.00 | 85 | 1017.6 |
| 20260507050040 | 7 | 0 | 0.0 | 3.2 | 0.00 | 0.05 | 0.00 | 87 | 1017.6 |
| 20260507044528 | 6 | 0 | 0.0 | 0.0 | 0.00 | 0.08 | 0.05 | 89 | 1017.7 |
| 20260507043030 | 6 | 0 | 0.0 | 1.6 | 0.00 | 0.08 | 0.05 | 88 | 1017.6 |
| 20260507041532 | 6 | 0 | 0.0 | 0.0 | 0.00 | 0.08 | 0.05 | 88 | 1017.5 |
| 20260507040030 | 6 | 0 | 0.0 | 0.0 | 0.00 | 0.08 | 0.05 | 86 | 1017.8 |
| 20260507034531 | 6 | 0 | 0.0 | 0.0 | 0.00 | 0.08 | 0.05 | 85 | 1017.7 |
| 20260507033028 | 6 | 0 | 0.0 | 0.0 | 0.00 | 0.08 | 0.05 | 83 | 1017.9 |
| 20260507031533 | 6 | 0 | 0.0 | 0.0 | 0.00 | 0.08 | 0.05 | 81 | 1017.7 |
| 20260507030035 | 7 | 0 | 0.0 | 0.0 | 0.00 | 0.08 | 0.05 | 78 | 1017.8 |
| 20260507024533 | 7 | 0 | 0.0 | 0.0 | 0.00 | 0.08 | 0.05 | 75 | 1017.7 |
| 20260507023031 | 7 | 0 | 0.0 | 0.0 | 0.00 | 0.08 | 0.05 | 71 | 1017.5 |
| 20260507021531 | 8 | 0 | 0.0 | 0.0 | 0.00 | 0.08 | 0.05 | 68 | 1017.5 |
| 20260507020034 | 9 | 0 | 0.0 | 0.0 | 0.00 | 0.08 | 0.05 | 62 | 1017.3 |
| 20260507014532 | 10 | 0 | 0.0 | 0.0 | 0.00 | 0.08 | 0.05 | 60 | 1017.3 |
| 20260507013032 | 11 | 0 | 0.0 | 0.0 | 0.00 | 0.08 | 0.05 | 57 | 1017.2 |
| 20260507011534 | 12 | 0 | 0.0 | 0.0 | 0.00 | 0.08 | 0.05 | 50 | 1017.1 |
| 20260507010048 | 13 | 0 | 0.0 | 0.0 | 0.00 | 0.08 | 0.05 | 44 | 1017.0 |
| 20260507004534 | 15 | 0 | 0.0 | 1.6 | 0.00 | 0.08 | 0.05 | 41 | 1017.1 |
| 20260507003030 | 15 | 0 | 0.0 | 1.6 | 0.00 | 0.08 | 0.05 | 41 | 1017.0 |
| 20260507001533 | 15 | 0 | 0.0 | 16.1 | 0.00 | 0.08 | 0.05 | 39 | 1017.1 |
| 20260507000032 | 15 | 0 | 0.0 | 12.9 | 0.00 | 0.08 | 0.05 | 37 | 1016.9 |
| 20260506234531 | 15 | 25 | 0.0 | 6.4 | 0.00 | 0.08 | 0.05 | 38 | 1017.1 |
| 20260506233033 | 16 | 42 | 0.0 | 20.9 | 0.00 | 0.08 | 0.05 | 37 | 1017.1 |
| 20260506231531 | 16 | 0 | 1.6 | 14.5 | 0.00 | 0.08 | 0.05 | 40 | 1017.1 |
| 20260506230029 | 16 | 44 | 0.0 | 14.5 | 0.00 | 0.08 | 0.05 | 38 | 1017.1 |
| 20260506224537 | 16 | 0 | 0.0 | 11.3 | 0.00 | 0.08 | 0.05 | 38 | 1017.1 |
| 20260506223032 | 16 | 111 | 1.6 | 9.7 | 0.00 | 0.08 | 0.05 | 35 | 1017.0 |
| 20260506221530 | 16 | 29 | 0.0 | 17.7 | 0.00 | 0.08 | 0.05 | 35 | 1017.1 |
| 20260506220035 | 16 | 0 | 0.0 | 9.7 | 0.00 | 0.08 | 0.05 | 39 | 1017.3 |
| 20260506214536 | 16 | 341 | 3.2 | 19.3 | 0.00 | 0.08 | 0.05 | 38 | 1017.4 |
| 20260506213028 | 16 | 30 | 1.6 | 9.7 | 0.00 | 0.08 | 0.05 | 37 | 1017.4 |
| 20260506211534 | 16 | 0 | 0.0 | 6.4 | 0.00 | 0.08 | 0.05 | 38 | 1017.6 |
| 20260506210034 | 16 | 14 | 3.2 | 14.5 | 0.00 | 0.08 | 0.05 | 36 | 1017.9 |
| 20260506204535 | 16 | 0 | 1.6 | 11.3 | 0.00 | 0.08 | 0.05 | 36 | 1018.1 |
| 20260506203032 | 16 | 0 | 1.6 | 8.0 | 0.00 | 0.08 | 0.05 | 43 | 1018.4 |
| 20260506201538 | 15 | 0 | 1.6 | 12.9 | 0.00 | 0.08 | 0.05 | 43 | 1018.5 |
| 20260506200030 | 15 | 360 | 1.6 | 27.4 | 0.00 | 0.08 | 0.05 | 38 | 1018.5 |
| 20260506194528 | 15 | 288 | 3.2 | 11.3 | 0.00 | 0.08 | 0.05 | 38 | 1018.6 |
| 20260506193028 | 15 | 40 | 1.6 | 17.7 | 0.00 | 0.08 | 0.05 | 42 | 1018.7 |